Regional Weather Roundup
Issued by NWS

Home | Current Version | Previous Version | Graphics & Text | Print | Product List | Glossary On
Versions: 1 2 3 4 5 6 7 8 9 10 11 12 13 14 15 16 17 18 19 20 21 22 23 24 25 26 27 28 29 30 31 32 33 34 35 36 37 38 39 40 41 42 43 44 45 46 47 48 49 50
000
ASUS43 KMKX 041000
RWRWI

WISCONSIN REGIONAL WEATHER ROUNDUP
NATIONAL WEATHER SERVICE MILWAUKEE/SULLIVAN WI
500 AM CDT TUE AUG 04 2015

NOTE: "FAIR" INDICATES FEW OR NO CLOUDS BELOW 12,000 FEET WITH NO
SIGNIFICANT WEATHER AND/OR OBSTRUCTIONS TO VISIBILITY.

WIZ001-002-006>008-014>016-023>028-041100-
NORTHWEST WISCONSIN

CITY           SKY/WX    TMP DP  RH WIND       PRES   REMARKS
SUPERIOR ARPT  CLEAR     47  46  99 CALM      29.92R FOG
ASHLAND        PTCLDY    52  51  97 SW6       29.90S
HAYWARD        PTCLDY    48  46  93 SW3       29.93S FOG
SIREN          CLEAR     50  48  93 CALM      29.94S
CUMBERLAND     CLEAR     50  46  87 CALM      29.95R
RICE LAKE      FOG       51  49  94 CALM      29.95F VSB 3/4
CHETEK         CLEAR     53  53  97 SW3       29.94S
LADYSMITH      CLEAR     53  50  91 CALM      29.95R
EAU CLAIRE     NOT AVBL
MENOMONIE      CLEAR     57  54  89 CALM      29.94S
NEW RICHMOND   CLEAR     53  53  99 CALM      29.96S
OSCEOLA        CLEAR     51  51 100 CALM      29.98S FOG
$$

WIZ003>005-009-010-017-018-041100-
NORTH CENTRAL WISCONSIN

CITY           SKY/WX    TMP DP  RH WIND       PRES   REMARKS
MANITOWISH WTR CLOUDY    54  54 100 NW6       29.90S
ARBOR VITAE    PTCLDY    57  55  93 NW3       29.90F
WOODRUFF       PTCLDY    57  55  93 NW3       29.90F
RHINELANDER    PTCLDY    55  53  93 W6        29.91S
EAGLE RIVER    CLOUDY    54  54 100 W3        29.89F
LAND O LAKES   CLOUDY    57  56  96 W5        29.90S
PHILLIPS       CLEAR     53  52  98 CALM      29.92R
TOMAHAWK       CLOUDY    54  53  94 W3        29.92S
MEDFORD        CLEAR     52  51  96 W3        29.93S
MERRILL        NOT AVBL
$$

WIZ029-030-035-036-043>047-041100-
CENTRAL WISCONSIN

CITY           SKY/WX    TMP DP  RH WIND       PRES   REMARKS
WAUSAU         MOCLDY    59  55  87 NW6       29.91R
MOSINEE        CLEAR     55  54  94 NW7       29.92R
MARSHFIELD     PTCLDY    57  51  80 NW9       29.93R
STEVENS POINT  CLEAR     58  53  84 W3        29.91S
WAUPACA        PTCLDY    58  54  85 CALM      29.90S
WAUTOMA        NOT AVBL
WISC RAPIDS    PTCLDY    58  52  80 NW6       29.93S
CAMP DOUGLAS   NOT AVBL
$$

WIZ011>013-019>022-031-037>040-048>050-041100-
NORTHEAST WISCONSIN

CITY           SKY/WX    TMP DP  RH WIND       PRES   REMARKS
ANTIGO         CLEAR     53  53  97 W6        29.91R
SHAWANO        CLEAR     56  54  93 CALM      29.89S
OCONTO         MOCLDY    54  54 100 CALM      29.87S
STURGEON BAY   MOCLDY    61  54  77 W5        29.89S
GREEN BAY      PTCLDY    57  55  93 CALM      29.89R
MANITOWOC      NOT AVBL
APPLETON       MOCLDY    59  52  77 W5        29.90S
CLINTONVILLE   CLEAR     54  52  94 CALM      29.89S
OSHKOSH        CLEAR     60  52  74 W5        29.89S
$$

WIZ032>034-041-042-053>061-041100-
SOUTHWEST WISCONSIN

CITY           SKY/WX    TMP DP  RH WIND       PRES   REMARKS
LA CROSSE      CLEAR     60  56  86 CALM      29.93S
SPARTA         CLEAR     48  47  97 CALM      29.95R
VIROQUA        CLEAR     55  53  94 W3        29.94S
BOSCOBEL       CLEAR     54  52  93 SW3       29.94S
PRAIRIE DU CHI CLEAR     55  52  90 CALM      29.93S
PLATTEVILLE    CLEAR     57  55  91 W3        29.95R
$$

WIZ056-057-062-063-064-067-068-041100-
SOUTH CENTRAL WISCONSIN

CITY           SKY/WX    TMP DP  RH WIND       PRES   REMARKS
REEDSBURG      CLEAR     52  51  97 CALM      29.92S
BARABOO/DELLS  CLEAR     55  50  82 CALM      29.92S
LONE ROCK      NOT AVBL
MINERAL POINT  CLEAR     59  54  82 CALM      29.94S
MADISON        CLEAR     57  51  80 CALM      29.91S
MIDDLETON      CLEAR     54  51  89 CALM      29.93S
WATERTOWN      CLEAR     52  52 100 CALM      29.91S
MONROE         CLEAR     63  52  67 W9        29.93S
JANESVILLE     CLEAR     57  55  94 CALM      29.92F
$$

WIZ051-052-058>065-066-070>072-041100-
SOUTHEAST WISCONSIN

CITY           SKY/WX    TMP DP  RH WIND       PRES   REMARKS
MILWAUKEE      CLEAR     64  51  62 W6        29.91S
WAUKESHA       CLEAR     55  50  82 CALM      29.93S
MILWAUKEE/TIMM CLEAR     59  50  72 CALM      29.91S
RACINE         CLEAR     61  52  72 W8        29.93R
BURLINGTON     CLEAR     51  50  97 CALM      29.92S
KENOSHA        CLEAR     57  53  86 W3        29.92S
FOND DU LAC    MOCLDY    58  52  80 SW5       29.90S
SHEBOYGAN      MOCLDY    58  55  90 W5        29.89S
WEST BEND      CLEAR     54  52  94 CALM      29.91R
JUNEAU         CLEAR     54  51  91 SW3       29.92S
$$

LSZ147-162-041100-
LAKE SUPERIOR

STATION/POSITION TIME  TEMP    WIND        PRES    WAVE
                       AIR SEA DIR/SP/G            HT/PER
                 (UTC) (F)     (DEG/KT/KT) (MB)    (FT/S)
W MID LAKE BUOY  0850   57 56  310/ 14/ 16 1010.9R   1/ 4
DEVILS ISLAND    0900   56     260/ 11/ 12 1012.2R
PORT WING        0940   56     190/  4/  7 1012.9R
SAXON HARBOR     0900   60     200/  5     1011.5
$$

LMZ867-665-643>646-041100-
LAKE MICHIGAN

STATION/POSITION TIME  TEMP    WIND        PRES    WAVE
                       AIR SEA DIR/SP/G            HT/PER
                 (UTC) (F)     (DEG/KT/KT) (MB)    (FT/S)
CHAMBERS ISLAND  0900   62     230/  4/  8 1011.2R
S GREEN BAY BUOY 0900   63 71  260/  8/ 10 1012.9R
N MID LAKE BUOY  0850   64 67  280/ 12/ 14 1009.8R   1/ 3
NORTHPORT PIER   0900   63     290/  3/  9 1010.8R
SISTER BAY       0918   64     320/ 16/ 20   N/A
ALGOMA LAKESHORE 0812           CALM  /  4   N/A
KEWAUNEE LAKESHO 0900   59     290/  4/  5 1011.1R
SHEBOYGAN LAKESH 0900   63     260/  8/  9 1012.1R
PORT WASHINGTON  0900   63     270/  4/  6 1012.9S
ATWATER BUOY     0900   61 55  260/  6/  6 1013.8R
MILWAUKEE LAKESH 0900   66     290/  5/  7   N/A
KENOSHA   LAKESH 0900   64     280/  9/ 10 1012.5R
$$

TC  - TEMPERATURE IN CELSIUS
VSB - VISIBILITY IN STATUTE MILES
WCI - WIND CHILL INDEX
HX  - HEAT INDEX



USA.gov is the U.S. government's official web portal to all federal, state and local government web resources and services.